period_start,C,m1,H,J0,J1,J2,J3,J4,J5,JA,JB,JC,JD,JJ,JK,JN,#
2015-05-24 00:00:24,0.05,1.00,0.00,23.16,27.10,29.89,4.78,26.68,1018.54,2036.00,3043.24,3037.00,3278.55,350.36,348.45,30.09,0000 0000 0000 0000 000000
2015-05-24 00:05:25,0.01,1.00,0.00,23.17,27.10,29.90,4.78,26.57,1018.54,2036.00,3043.00,3036.97,3278.05,349.94,348.03,30.12,0000 0000 0000 0000 000000
2015-05-24 00:10:26,0.05,1.00,0.00,23.12,27.10,29.95,4.75,26.67,1018.51,2036.00,3042.60,3036.39,3277.99,349.62,348.01,30.15,0000 0000 0000 0000 000000
2015-05-24 00:15:28,0.02,1.00,0.00,23.08,27.10,29.95,4.78,26.62,1018.47,2036.00,3042.03,3036.04,3277.86,350.05,348.41,30.18,0000 0000 0000 0000 000000
2015-05-24 00:20:30,0.02,1.00,0.00,23.17,27.11,29.91,4.81,26.63,1018.45,2036.00,3041.98,3036.00,3277.24,350.47,348.25,30.21,0000 0000 0000 0000 000000
2015-05-24 00:25:31,0.01,1.00,0.00,23.41,27.12,29.84,4.78,26.66,1018.53,2036.00,3041.71,3035.98,3277.01,349.79,347.61,30.23,0000 0000 0000 0000 000000
2015-05-24 00:30:32,0.04,1.00,0.00,23.46,27.14,29.87,4.76,26.71,1018.51,2036.00,3041.07,3035.62,3276.96,349.97,347.73,30.26,0000 0000 0000 0000 000000
2015-05-24 00:35:33,0.05,1.01,0.00,23.29,27.15,29.94,4.78,26.70,1018.54,2036.00,3040.82,3035.03,3276.32,349.67,347.68,30.29,0000 0000 0000 0000 000000
2015-05-24 00:40:35,0.02,1.01,0.00,23.27,27.15,29.95,4.78,26.59,1018.49,2036.00,3040.06,3034.98,3276.01,349.90,347.89,30.32,0000 0000 0000 0000 000000
2015-05-24 00:45:36,0.04,1.01,0.00,23.26,27.17,29.97,4.76,26.68,1018.40,2036.00,3039.93,3034.49,3275.93,349.90,348.18,30.35,0000 0000 0000 0000 000000
2015-05-24 00:50:37,0.05,1.01,0.00,23.21,27.17,30.00,4.86,26.62,1018.32,2036.00,3039.15,3034.03,3275.25,350.60,348.34,30.38,0000 0000 0000 0000 000000
2015-05-24 00:55:38,0.00,1.01,0.00,23.18,27.17,30.01,4.76,26.60,1018.15,2035.99,3038.87,3033.98,3275.00,349.95,348.03,30.41,0000 0000 0000 0000 000000
2015-05-24 01:00:39,0.06,1.01,0.00,23.17,27.17,30.01,4.75,26.77,1018.12,2035.97,3038.06,3033.46,3274.69,349.71,347.52,30.44,0000 0000 0000 0000 000000
2015-05-24 01:05:40,0.03,1.01,0.00,23.15,27.17,30.02,4.80,26.57,1018.13,2035.99,3037.98,3033.05,3274.12,349.90,347.82,30.47,0000 0000 0000 0000 000000
2015-05-24 01:10:41,0.02,1.01,0.00,23.13,27.18,30.02,4.83,26.71,1018.09,2035.98,3037.26,3033.00,3274.00,349.55,347.52,30.50,0000 0000 0000 0000 000000
2015-05-24 01:15:43,0.01,1.01,0.00,23.14,27.19,30.01,4.76,26.64,1018.10,2035.98,3037.00,3032.92,3273.90,350.09,347.86,30.53,0000 0000 0000 0000 000000
2015-05-24 01:20:44,0.07,1.02,0.00,23.15,27.20,30.02,4.79,26.61,1018.11,2035.98,3036.66,3032.37,3273.25,349.96,348.07,30.56,0000 0000 0000 0000 000000
2015-05-24 01:25:45,0.02,1.02,0.00,23.16,27.20,30.02,4.78,26.55,1018.11,2035.98,3036.04,3032.02,3273.01,350.02,348.13,30.59,0000 0000 0000 0000 000000
2015-05-24 01:30:46,0.01,1.02,0.00,23.17,27.20,30.02,4.81,26.63,1018.13,2035.96,3035.75,3031.99,3272.92,350.14,348.27,30.61,0000 0000 0000 0000 000000
2015-05-24 01:35:48,0.06,1.02,0.00,23.18,27.20,30.02,4.78,26.63,1018.15,2035.95,3035.04,3031.66,3272.19,350.47,348.44,30.64,0000 0000 0000 0000 000000
2015-05-24 01:40:49,0.02,1.02,0.00,23.17,27.20,30.03,4.77,26.64,1018.13,2035.95,3034.94,3031.07,3272.00,350.26,348.18,30.67,0000 0000 0000 0000 000000
2015-05-24 01:45:50,0.02,1.02,0.00,23.20,27.20,30.02,4.80,26.63,1018.13,2035.90,3034.17,3031.00,3271.93,349.81,347.67,30.70,0000 0000 0000 0000 000000
2015-05-24 01:50:52,0.03,1.02,0.00,23.21,27.20,30.03,4.74,26.55,1018.10,2035.91,3033.98,3030.88,3271.29,349.66,347.61,30.73,0000 0000 0000 0000 000000
2015-05-24 01:55:53,0.06,1.02,0.00,23.22,27.20,30.03,4.79,26.80,1018.11,2035.92,3033.30,3030.16,3271.00,349.83,347.74,30.76,0000 0000 0000 0000 000000
2015-05-24 02:00:54,-0.01,1.02,0.00,23.25,27.21,30.00,4.80,26.83,1018.12,2035.71,3032.99,3030.00,3270.91,350.48,348.25,30.79,0000 0000 0000 0000 000000
2015-05-24 02:05:55,0.05,1.02,0.00,23.26,27.22,30.03,4.82,26.56,1018.17,2035.78,3032.58,3029.97,3270.34,350.44,348.16,30.82,0000 0000 0000 0000 000000
2015-05-24 02:10:57,0.01,1.02,0.00,23.27,27.22,30.03,4.87,26.62,1018.11,2035.64,3032.03,3029.44,3270.00,350.24,347.96,30.85,0000 0000 0000 0000 000000
2015-05-24 02:15:58,0.01,1.03,0.00,23.30,27.22,30.03,4.79,26.64,1018.14,2035.50,3031.69,3029.03,3269.93,350.37,348.27,30.88,0000 0000 0000 0000 000000
2015-05-24 02:20:59,0.03,1.03,0.00,23.33,27.22,30.03,4.78,26.62,1018.12,2035.46,3031.05,3028.99,3269.27,349.75,347.53,30.91,0000 0000 0000 0000 000000
2015-05-24 02:26:01,0.02,1.03,0.00,23.35,27.22,30.03,4.82,26.68,1018.10,2035.35,3030.83,3028.65,3269.00,349.94,347.66,30.94,0000 0000 0000 0000 000000
2015-05-24 02:31:02,0.04,1.03,0.00,23.37,27.22,30.02,4.81,26.68,1018.09,2035.37,3030.12,3028.06,3268.90,350.03,347.70,30.97,0000 0000 0000 0000 000000
2015-05-24 02:36:03,0.01,1.03,0.00,23.40,27.23,30.02,4.77,26.57,1018.09,2035.25,3029.87,3027.99,3268.18,350.09,347.75,31.00,0000 0000 0000 0000 000000
2015-05-24 02:41:04,0.03,1.03,0.00,23.41,27.24,30.03,4.71,26.58,1018.09,2035.20,3029.12,3027.75,3267.99,349.40,347.15,31.03,0000 0000 0000 0000 000000
2015-05-24 02:46:06,0.04,1.03,0.00,23.43,27.25,30.02,4.77,26.57,1018.09,2035.19,3028.92,3027.08,3267.70,349.86,347.70,31.05,0000 0000 0000 0000 000000
2015-05-24 02:51:06,0.08,1.03,0.00,23.45,27.25,30.02,4.74,26.57,1018.09,2035.25,3028.16,3027.00,3267.11,349.97,347.52,31.08,0000 0000 0000 0000 000000
2015-05-24 02:56:08,0.00,1.03,0.00,23.50,27.25,30.02,4.79,26.66,1018.09,2035.33,3027.88,3026.81,3266.99,350.38,347.97,31.11,0000 0000 0000 0000 000000
2015-05-24 03:01:09,0.05,1.03,0.00,23.52,27.25,30.01,4.74,26.63,1018.09,2035.10,3027.07,3026.06,3266.43,350.13,347.71,31.14,0000 0000 0000 0000 000000
2015-05-24 03:06:11,0.00,1.03,0.00,23.54,27.25,30.00,4.81,26.53,1018.10,2035.07,3026.90,3026.00,3266.03,350.45,347.96,31.17,0000 0000 0000 0000 000000
2015-05-24 03:11:12,0.03,1.04,0.00,23.56,27.27,30.01,4.70,26.50,1018.10,2035.07,3026.16,3025.86,3265.97,349.72,347.30,31.20,0000 0000 0000 0000 000000
2015-05-24 03:16:13,0.06,1.04,0.00,23.60,27.27,29.98,4.77,26.57,1018.10,2035.08,3025.98,3025.17,3265.42,349.74,347.38,31.23,0000 0000 0000 0000 000000
2015-05-24 03:21:14,0.02,1.04,0.00,23.62,27.27,29.99,4.79,26.52,1018.09,2035.04,3025.31,3025.00,3265.01,350.47,347.73,31.26,0000 0000 0000 0000 000000
2015-05-24 03:26:16,0.03,1.04,0.00,23.64,27.27,29.99,4.76,26.60,1018.09,2035.03,3024.98,3024.80,3264.84,349.81,347.61,31.29,0000 0000 0000 0000 000000
2015-05-24 03:31:17,0.07,1.04,0.00,23.66,27.28,29.98,4.77,26.66,1018.09,2035.01,3024.27,3024.07,3264.09,350.28,348.03,31.32,0000 0000 0000 0000 000000
2015-05-24 03:36:18,0.00,1.04,0.00,23.69,27.29,29.97,4.76,26.57,1018.09,2035.00,3024.00,3024.00,3264.00,349.98,347.05,31.35,0000 0000 0000 0000 000000
2015-05-24 03:41:20,0.03,1.04,0.00,23.71,27.30,29.97,4.73,26.54,1018.08,2035.02,3023.60,3023.94,3263.84,349.35,346.76,31.38,0000 0000 0000 0000 000000
2015-05-24 03:46:21,0.06,1.04,0.00,23.74,27.30,29.93,4.76,26.57,1018.10,2035.03,3023.02,3023.46,3263.21,350.26,347.59,31.41,0000 0000 0000 0000 000000
2015-05-24 03:51:22,0.02,1.04,0.00,23.76,27.30,29.96,4.76,26.51,1018.10,2035.01,3022.69,3023.02,3263.00,350.30,347.52,31.44,0000 0000 0000 0000 000000
2015-05-24 03:56:24,0.01,1.05,0.00,23.79,27.30,29.96,4.79,26.65,1018.10,2035.00,3022.03,3022.92,3262.91,350.33,347.59,31.46,0000 0000 0000 0000 000000
2015-05-24 04:01:25,0.07,1.05,0.00,23.81,27.31,29.93,4.80,26.63,1018.10,2035.00,3021.80,3022.24,3262.18,350.23,347.23,31.49,0000 0000 0000 0000 000000
2015-05-24 04:06:26,0.02,1.05,0.00,23.83,27.32,29.93,4.74,26.56,1018.11,2035.00,3021.05,3022.01,3262.00,349.38,346.87,31.52,0000 0000 0000 0000 000000
2015-05-24 04:11:27,0.00,1.05,0.00,23.85,27.32,29.92,4.73,26.50,1018.11,2035.00,3020.94,3021.99,3261.93,349.75,347.13,31.55,0000 0000 0000 0000 000000
2015-05-24 04:16:28,0.08,1.05,0.00,23.87,27.32,29.93,4.75,26.50,1018.12,2035.00,3020.15,3021.60,3261.27,350.00,347.21,31.58,0000 0000 0000 0000 000000
2015-05-24 04:21:29,0.02,1.05,0.00,23.90,27.34,29.90,4.78,26.57,1018.15,2035.00,3019.97,3021.04,3261.00,349.71,346.69,31.61,0000 0000 0000 0000 000000
2015-05-24 04:26:31,0.03,1.05,0.00,23.92,27.35,29.92,4.78,26.48,1018.20,2035.00,3019.31,3021.00,3260.87,350.33,347.47,31.64,0000 0000 0000 0000 000000
2015-05-24 04:31:32,0.03,1.05,0.00,23.94,27.35,29.93,4.73,26.51,1018.11,2035.00,3019.00,3020.81,3260.29,350.18,347.34,31.67,0000 0000 0000 0000 000000
2015-05-24 04:36:33,0.05,1.06,0.00,23.95,27.35,29.93,4.70,26.55,1018.12,2035.00,3018.47,3020.07,3260.01,350.14,347.25,31.70,0000 0000 0000 0000 000000
2015-05-24 04:41:34,0.01,1.06,0.00,23.97,27.36,29.91,4.74,26.50,1018.09,2035.00,3018.02,3020.00,3259.90,349.80,346.84,31.73,0000 0000 0000 0000 000000
2015-05-24 04:46:35,0.02,1.06,0.00,24.01,27.37,29.90,4.76,26.48,1018.11,2035.00,3017.96,3019.98,3259.31,349.61,346.60,31.76,0000 0000 0000 0000 000000
2015-05-24 04:51:37,0.06,1.06,0.00,24.04,27.37,29.91,4.67,26.38,1018.10,2035.00,3017.30,3019.55,3259.01,349.18,346.41,31.79,0000 0000 0000 0000 000000
2015-05-24 04:56:38,0.02,1.06,0.00,24.05,27.37,29.93,4.74,26.53,1018.09,2034.99,3016.91,3019.02,3258.87,350.34,347.18,31.82,0000 0000 0000 0000 000000
2015-05-24 05:01:39,0.04,1.06,0.00,24.06,27.39,29.94,4.74,26.53,1018.08,2034.98,3016.20,3018.98,3258.10,350.02,346.92,31.85,0000 0000 0000 0000 000000
2015-05-24 05:06:40,0.04,1.06,0.00,24.08,27.40,29.93,4.76,26.51,1018.08,2034.98,3016.00,3018.43,3258.00,349.74,346.43,31.87,0000 0000 0000 0000 000000
2015-05-24 05:11:42,0.02,1.06,0.00,24.11,27.40,29.93,4.72,26.50,1018.09,2034.98,3015.75,3018.03,3257.90,349.77,346.63,31.90,0000 0000 0000 0000 000000
2015-05-24 05:16:43,0.03,1.06,0.00,24.12,27.41,29.93,4.74,26.53,1018.09,2034.97,3015.10,3018.00,3257.34,349.51,346.49,31.93,0000 0000 0000 0000 000000
2015-05-24 05:21:44,0.00,1.06,0.00,24.14,27.42,29.92,4.70,26.51,1018.09,2034.89,3014.98,3017.84,3257.01,349.69,346.55,31.96,0000 0000 0000 0000 000000
2015-05-24 05:26:46,0.06,1.06,0.00,24.16,27.42,29.94,4.83,26.49,1018.09,2034.82,3014.29,3017.15,3256.97,350.00,346.78,31.99,0000 0000 0000 0000 000000
2015-05-24 05:31:47,-0.01,1.07,0.00,24.17,27.42,29.95,4.76,26.52,1018.10,2034.75,3014.01,3017.01,3256.57,349.90,346.48,32.02,0000 0000 0000 0000 000000
2015-05-24 05:36:48,0.01,1.06,0.00,24.18,27.44,29.95,4.80,26.44,1018.12,2034.54,3013.97,3016.99,3256.03,350.04,346.86,32.05,0000 0000 0000 0000 000000
2015-05-24 05:41:50,-0.02,1.07,0.00,24.22,27.45,29.95,4.75,26.58,1018.12,2034.52,3013.40,3016.89,3256.00,349.97,346.62,32.08,0000 0000 0000 0000 000000
2015-05-24 05:46:51,0.02,1.07,0.00,24.22,27.45,29.98,4.72,26.52,1018.11,2034.34,3013.02,3016.37,3255.97,349.86,346.58,32.11,0000 0000 0000 0000 000000
2015-05-24 05:51:52,0.01,1.07,0.00,24.24,27.46,29.98,4.75,26.53,1018.10,2034.31,3012.99,3016.03,3255.62,349.83,346.69,32.14,0000 0000 0000 0000 000000
2015-05-24 05:56:53,0.02,1.07,0.00,24.25,27.47,29.99,4.77,26.63,1018.10,2034.22,3012.45,3016.00,3255.07,349.84,346.49,32.17,0000 0000 0000 0000 000000
2015-05-24 06:01:54,0.01,1.07,0.00,24.27,27.47,29.99,4.80,26.60,1018.12,2034.16,3012.03,3015.99,3255.00,350.60,347.20,32.20,0000 0000 0000 0000 000000
2015-05-24 06:06:55,-0.00,1.07,0.00,24.27,27.48,29.99,4.78,26.48,1018.11,2034.12,3012.00,3015.95,3254.99,350.29,346.79,32.23,0000 0000 0000 0000 000000
2015-05-24 06:11:57,0.01,1.07,0.00,24.30,27.50,30.00,4.72,26.44,1018.11,2034.12,3011.98,3015.69,3254.98,350.18,346.85,32.26,0000 0000 0000 0000 000000
2015-05-24 06:16:58,0.05,1.07,0.00,24.31,27.50,30.00,4.73,26.48,1018.12,2034.07,3011.67,3015.11,3254.52,349.80,346.42,32.28,0000 0000 0000 0000 000000
2015-05-24 06:21:59,0.02,1.07,0.00,24.32,27.51,30.02,4.73,26.60,1018.11,2034.05,3011.06,3015.01,3254.05,349.50,346.09,32.31,0000 0000 0000 0000 000000
2015-05-24 06:27:00,0.00,1.07,0.00,24.32,27.52,30.02,4.75,26.51,1018.13,2034.05,3011.00,3015.00,3254.00,350.23,346.77,32.34,0000 0000 0000 0000 000000
2015-05-24 06:32:02,-0.00,1.07,0.00,24.32,27.52,30.03,4.79,26.58,1018.24,2034.03,3010.99,3014.99,3254.00,350.22,346.64,32.37,0000 0000 0000 0000 000000
2015-05-24 06:37:03,0.00,1.07,0.00,24.34,27.53,30.04,4.68,26.53,1018.46,2034.02,3010.96,3014.94,3254.00,349.00,345.87,32.40,0000 0000 0000 0000 000000
2015-05-24 06:42:04,0.01,1.07,0.00,24.35,27.55,30.05,4.71,26.50,1018.53,2034.00,3010.85,3014.70,3253.90,350.11,346.68,32.43,0000 0000 0000 0000 000000
2015-05-24 06:47:06,0.03,1.07,0.00,24.36,27.55,30.07,4.72,26.54,1018.54,2034.02,3010.44,3014.51,3253.72,349.99,346.94,32.46,0000 0000 0000 0000 000000
2015-05-24 06:52:07,0.04,1.07,0.00,24.37,27.55,30.07,4.69,26.51,1018.56,2034.01,3010.06,3014.10,3253.34,349.44,346.27,32.49,0000 0000 0000 0000 000000
2015-05-24 06:57:08,0.01,1.07,0.00,24.38,27.57,30.09,4.71,26.59,1018.57,2034.00,3010.01,3014.04,3253.06,349.92,346.68,32.52,0000 0000 0000 0000 000000
2015-05-24 07:02:09,0.00,1.07,0.00,24.39,27.57,30.08,4.75,26.47,1018.56,2034.00,3010.00,3014.00,3253.00,349.94,346.77,32.55,0000 0000 0000 0000 000000
2015-05-24 07:07:10,0.00,1.07,0.00,24.40,27.57,30.08,4.74,26.54,1018.57,2034.00,3009.99,3014.00,3253.00,349.93,346.80,32.58,0000 0000 0000 0000 000000
2015-05-24 07:12:12,0.00,1.07,0.00,24.38,27.58,30.10,4.80,26.48,1018.57,2034.00,3009.92,3014.00,3252.98,350.36,347.12,32.61,0000 0000 0000 0000 000000
2015-05-24 07:17:13,0.01,1.07,0.00,24.37,27.59,30.11,4.69,26.48,1018.57,2034.00,3009.57,3013.98,3252.96,349.92,346.65,32.64,0000 0000 0000 0000 000000
2015-05-24 07:22:14,0.02,1.07,0.00,24.38,27.60,30.13,4.66,26.53,1018.57,2033.99,3009.08,3013.90,3252.82,348.99,345.63,32.67,0000 0000 0000 0000 000000
2015-05-24 07:27:15,0.02,1.07,0.00,24.39,27.60,30.12,4.79,26.53,1018.57,2033.99,3009.00,3013.62,3252.49,349.65,346.35,32.69,0000 0000 0000 0000 000000
2015-05-24 07:32:17,0.03,1.08,0.00,24.40,27.60,30.13,4.76,26.53,1018.57,2033.99,3009.00,3013.14,3252.08,349.54,346.57,32.72,0000 0000 0000 0000 000000
2015-05-24 07:37:18,0.00,1.08,0.00,24.40,27.60,30.12,4.74,26.40,1018.58,2033.99,3008.99,3013.04,3252.02,349.89,346.73,32.75,0000 0000 0000 0000 000000
2015-05-24 07:42:19,0.01,1.08,0.00,24.40,27.62,30.14,4.78,26.51,1018.58,2033.98,3008.78,3013.00,3252.00,350.25,346.99,32.78,0000 0000 0000 0000 000000
2015-05-24 07:47:20,0.01,1.08,0.00,24.39,27.62,30.14,4.74,26.43,1018.59,2033.98,3008.35,3013.00,3252.00,350.02,346.63,32.81,0000 0000 0000 0000 000000
2015-05-24 07:52:22,0.01,1.08,0.00,24.39,27.62,30.14,4.74,26.45,1018.58,2033.98,3008.05,3012.99,3251.99,349.62,346.48,32.84,0000 0000 0000 0000 000000
2015-05-24 07:57:23,0.00,1.08,0.00,24.38,27.62,30.16,4.74,26.52,1018.58,2033.97,3008.02,3012.97,3251.82,350.30,347.04,32.87,0000 0000 0000 0000 000000
2015-05-24 08:02:24,0.01,1.08,0.00,24.37,27.63,30.17,4.80,26.55,1018.59,2033.97,3008.00,3012.87,3251.30,350.07,346.85,32.90,0000 0000 0000 0000 000000
2015-05-24 08:07:25,0.02,1.08,0.00,24.37,27.65,30.17,4.67,26.48,1018.59,2033.95,3007.97,3012.55,3251.07,349.77,346.51,32.93,0000 0000 0000 0000 000000
2015-05-24 08:12:27,0.03,1.08,0.00,24.37,27.65,30.18,4.73,26.54,1018.59,2033.95,3007.66,3012.07,3251.00,350.36,347.07,32.96,0000 0000 0000 0000 000000
2015-05-24 08:17:28,0.01,1.08,0.00,24.37,27.65,30.20,4.77,26.36,1018.66,2033.93,3007.10,3012.02,3250.99,350.00,346.86,32.99,0000 0000 0000 0000 000000
2015-05-24 08:22:29,-0.01,1.08,0.00,24.37,27.65,30.20,4.73,26.45,1018.64,2033.94,3007.01,3012.01,3250.98,349.88,346.67,33.02,0000 0000 0000 0000 000000
2015-05-24 08:27:31,0.01,1.08,0.00,24.37,27.65,30.20,4.71,26.38,1018.63,2033.97,3007.00,3012.00,3250.96,349.38,346.15,33.05,0000 0000 0000 0000 000000
2015-05-24 08:32:32,0.01,1.08,0.00,24.37,27.65,30.19,4.74,26.43,1018.74,2033.96,3006.99,3011.99,3250.64,349.77,346.46,33.08,0000 0000 0000 0000 000000
2015-05-24 08:37:33,0.01,1.08,0.00,24.37,27.65,30.19,4.72,26.45,1018.90,2033.94,3006.97,3011.98,3250.24,349.93,346.80,33.11,0000 0000 0000 0000 000000
2015-05-24 08:42:34,0.02,1.08,0.00,24.35,27.67,30.20,4.72,26.51,1018.96,2033.89,3006.52,3011.82,3250.03,349.50,346.50,33.14,0000 0000 0000 0000 000000
2015-05-24 08:47:35,0.00,1.08,0.00,24.35,27.67,30.21,4.69,26.47,1019.01,2033.71,3006.04,3011.33,3250.00,349.81,346.82,33.16,0000 0000 0000 0000 000000
2015-05-24 08:52:37,0.01,1.08,0.00,24.35,27.67,30.23,4.73,26.40,1019.02,2033.60,3006.00,3011.07,3249.99,349.91,346.67,33.19,0000 0000 0000 0000 000000
2015-05-24 08:57:38,-0.01,1.08,0.00,24.34,27.67,30.22,4.70,26.68,1018.94,2033.60,3005.99,3011.02,3249.98,349.60,346.70,33.22,0000 0000 0000 0000 000000
2015-05-24 09:02:39,0.05,1.08,0.00,24.33,27.67,30.23,4.83,26.55,1018.92,2033.73,3005.98,3011.02,3249.93,350.43,347.38,33.25,0000 0000 0000 0000 000000
2015-05-24 09:07:41,0.03,1.08,0.00,24.31,27.67,30.24,4.72,26.43,1018.87,2033.78,3005.67,3011.00,3249.48,349.98,346.91,33.28,0000 0000 0000 0000 000000
2015-05-24 09:12:42,0.02,1.08,0.00,24.30,27.67,30.25,4.75,26.59,1018.90,2033.80,3005.11,3011.00,3249.12,350.02,347.08,33.31,0000 0000 0000 0000 000000
2015-05-24 09:17:43,-0.03,1.08,0.00,24.29,27.67,30.25,4.79,26.44,1018.99,2033.70,3005.03,3010.99,3249.02,350.36,347.34,33.34,0000 0000 0000 0000 000000
2015-05-24 09:22:45,0.03,1.08,0.00,24.27,27.67,30.26,4.75,26.45,1019.01,2033.77,3005.00,3010.95,3249.00,349.64,346.70,33.37,0000 0000 0000 0000 000000
2015-05-24 09:27:46,-0.03,1.08,0.00,24.25,27.67,30.26,4.74,26.49,1019.04,2033.65,3005.00,3010.83,3249.00,349.92,347.15,33.40,0000 0000 0000 0000 000000
2015-05-24 09:32:47,0.04,1.08,0.00,24.27,27.67,30.26,4.72,26.50,1019.04,2033.49,3004.87,3010.33,3248.98,349.72,346.86,33.43,0000 0000 0000 0000 000000
2015-05-24 09:37:49,-0.00,1.08,0.00,24.26,27.67,30.26,4.69,26.52,1019.06,2033.55,3004.50,3010.18,3248.95,349.89,346.83,33.46,0000 0000 0000 0000 000000
2015-05-24 09:42:50,0.00,1.08,0.00,24.24,27.67,30.26,4.76,26.51,1019.06,2033.28,3004.07,3010.01,3248.60,349.78,346.80,33.49,0000 0000 0000 0000 000000
2015-05-24 09:47:52,0.03,1.08,0.00,24.22,27.67,30.26,4.78,26.52,1019.06,2033.43,3004.03,3010.01,3248.39,350.59,347.50,33.52,0000 0000 0000 0000 000000
2015-05-24 09:52:53,0.04,1.09,0.00,24.22,27.67,30.26,4.72,26.48,1019.06,2033.69,3004.00,3010.01,3248.25,349.33,346.43,33.55,0000 0000 0000 0000 000000
2015-05-24 09:57:54,-0.03,1.09,0.00,24.21,27.67,30.25,4.72,26.58,1019.06,2033.54,3003.99,3010.00,3248.06,350.04,347.18,33.57,0000 0000 0000 0000 000000
2015-05-24 10:02:55,0.02,1.09,0.00,24.18,27.67,30.30,4.77,26.48,1019.06,2033.58,3003.97,3010.00,3248.00,350.08,347.21,33.60,0000 0000 0000 0000 000000
2015-05-24 10:07:57,0.01,1.09,0.00,24.16,27.67,30.31,4.72,26.58,1019.06,2033.61,3003.78,3009.99,3248.00,349.52,346.99,33.63,0000 0000 0000 0000 000000
2015-05-24 10:12:58,0.03,1.09,0.00,24.14,27.66,30.32,4.79,26.53,1019.06,2033.73,3003.53,3009.99,3248.00,349.60,346.79,33.66,0000 0000 0000 0000 000000
2015-05-24 10:17:59,0.02,1.09,0.00,24.12,27.65,30.32,4.79,26.70,1019.06,2033.74,3003.11,3009.98,3248.00,350.01,347.25,33.69,0000 0000 0000 0000 000000
2015-05-24 10:23:01,0.01,1.09,0.00,24.12,27.65,30.32,4.82,26.70,1019.07,2033.77,3003.01,3009.93,3247.99,350.32,347.65,33.72,0000 0000 0000 0000 000000
2015-05-24 10:28:02,-0.01,1.09,0.00,24.11,27.65,30.34,4.78,26.71,1019.07,2033.68,3003.00,3009.79,3247.98,349.61,346.73,33.75,0000 0000 0000 0000 000000
2015-05-24 10:33:03,0.04,1.09,0.00,24.12,27.65,30.31,4.80,26.68,1019.07,2033.82,3003.00,3009.62,3247.95,350.08,347.24,33.78,0000 0000 0000 0000 000000
2015-05-24 10:38:04,0.01,1.09,0.00,24.12,27.65,30.34,4.80,26.59,1019.07,2033.89,3003.00,3009.51,3247.94,349.93,347.02,33.81,0000 0000 0000 0000 000000
2015-05-24 10:43:05,0.03,1.09,0.00,24.11,27.65,30.31,4.72,26.66,1019.07,2033.82,3002.84,3009.19,3247.59,349.99,347.17,33.84,0000 0000 0000 0000 000000
2015-05-24 10:48:07,0.02,1.09,0.00,24.10,27.64,30.28,4.71,26.57,1019.07,2033.87,3002.55,3009.05,3247.23,350.21,347.12,33.87,0000 0000 0000 0000 000000
2015-05-24 10:53:08,0.02,1.09,0.00,24.10,27.62,30.31,4.73,26.63,1019.07,2033.90,3002.12,3009.02,3247.11,350.19,347.29,33.90,0000 0000 0000 0000 000000
2015-05-24 10:58:10,-0.01,1.09,0.00,24.10,27.62,30.30,4.76,26.66,1019.06,2033.84,3002.01,3009.00,3247.02,350.29,347.46,33.93,0000 0000 0000 0000 000000
2015-05-24 11:03:11,0.01,1.09,0.00,24.09,27.62,30.30,4.78,26.57,1019.07,2033.87,3002.00,3009.01,3247.00,350.19,347.35,33.96,0000 0000 0000 0000 000000
2015-05-24 11:08:12,0.01,1.09,0.00,24.09,27.62,30.30,4.76,26.53,1019.07,2033.95,3002.00,3009.00,3247.00,349.68,346.87,33.98,0000 0000 0000 0000 000000
2015-05-24 11:13:13,-0.00,1.09,0.00,24.09,27.62,30.28,4.73,26.49,1019.06,2033.95,3001.98,3009.00,3247.00,349.94,347.19,34.01,0000 0000 0000 0000 000000
2015-05-24 11:18:15,0.01,1.09,0.00,24.07,27.62,30.26,4.79,26.48,1019.06,2033.95,3001.95,3008.99,3246.99,350.08,347.15,34.04,0000 0000 0000 0000 000000
2015-05-24 11:23:16,0.01,1.09,0.00,24.07,27.60,30.27,4.77,26.56,1019.06,2033.98,3001.89,3008.99,3246.99,349.92,347.18,34.07,0000 0000 0000 0000 000000
2015-05-24 11:28:17,0.00,1.09,0.00,24.07,27.60,30.25,4.71,26.51,1019.06,2033.97,3001.51,3008.98,3246.98,350.25,347.36,34.10,0000 0000 0000 0000 000000
2015-05-24 11:33:18,0.01,1.09,0.00,24.06,27.60,30.26,4.76,26.52,1019.06,2033.96,3001.22,3008.98,3246.94,350.25,347.53,34.13,0000 0000 0000 0000 000000
2015-05-24 11:38:19,0.01,1.09,0.00,24.05,27.60,30.28,4.73,26.54,1019.06,2033.96,3001.05,3008.94,3246.86,349.68,346.96,34.16,0000 0000 0000 0000 000000
2015-05-24 11:43:21,0.00,1.09,0.00,24.02,27.60,30.26,4.84,26.52,1019.06,2033.98,3001.04,3008.90,3246.78,350.68,347.91,34.19,0000 0000 0000 0000 000000
2015-05-24 11:48:22,0.01,1.09,0.00,24.02,27.60,30.27,4.77,26.52,1019.06,2033.98,3001.01,3008.85,3246.65,350.42,347.69,34.22,0000 0000 0000 0000 000000
2015-05-24 11:53:23,0.01,1.09,0.00,24.02,27.60,30.28,4.73,26.57,1019.06,2033.96,3001.00,3008.77,3246.37,349.47,346.80,34.25,0000 0000 0000 0000 000000
2015-05-24 11:58:24,0.03,1.09,0.00,24.00,27.58,30.29,4.74,26.61,1019.06,2033.98,3000.99,3008.49,3246.15,349.90,347.10,34.28,0000 0000 0000 0000 000000
2015-05-24 12:03:26,-0.01,1.09,0.00,23.99,27.57,30.30,4.74,26.56,1019.07,2033.99,3000.99,3008.51,3246.17,349.36,346.81,34.31,0000 0000 0000 0000 000000
2015-05-24 12:08:27,0.02,1.09,0.00,23.98,27.57,30.28,4.73,26.59,1019.07,2033.99,3000.97,3008.29,3246.08,350.03,347.61,34.34,0000 0000 0000 0000 000000
2015-05-24 12:13:28,0.01,1.10,0.00,23.97,27.57,30.27,4.68,26.49,1019.06,2033.99,3000.84,3008.13,3246.02,349.33,346.83,34.37,0000 0000 0000 0000 000000
2015-05-24 12:18:29,0.02,1.10,0.00,23.97,27.57,30.27,4.79,26.50,1019.07,2033.99,3000.52,3008.07,3246.01,349.99,347.45,34.40,0000 0000 0000 0000 000000
2015-05-24 12:23:30,0.00,1.10,0.00,23.95,27.57,30.29,4.77,26.47,1019.07,2033.99,3000.14,3008.06,3246.00,350.26,347.74,34.42,0000 0000 0000 0000 000000
2015-05-24 12:28:32,0.00,1.10,0.00,23.94,27.56,30.27,4.80,26.48,1019.07,2033.99,3000.06,3008.03,3246.00,350.06,347.40,34.45,0000 0000 0000 0000 000000
2015-05-24 12:33:33,0.00,1.10,0.00,23.92,27.55,30.27,4.80,26.52,1019.07,2033.99,3000.03,3008.01,3246.00,349.92,347.36,34.48,0000 0000 0000 0000 000000
2015-05-24 12:38:34,0.00,1.10,0.00,23.90,27.55,30.27,4.80,26.56,1019.07,2033.99,3000.01,3008.01,3246.00,349.79,347.40,34.51,0000 0000 0000 0000 000000
2015-05-24 12:43:35,0.00,1.10,0.00,23.89,27.55,30.29,4.76,26.47,1019.08,2033.99,3000.00,3008.00,3246.00,349.91,347.40,34.54,0000 0000 0000 0000 000000
2015-05-24 12:48:36,0.00,1.10,0.00,23.88,27.55,30.29,4.79,26.48,1019.07,2033.99,2999.99,3008.00,3245.98,349.90,347.30,34.57,0000 0000 0000 0000 000000
2015-05-24 12:53:37,0.00,1.10,0.00,23.86,27.54,30.30,4.77,26.43,1019.06,2033.99,2999.98,3008.00,3245.98,349.60,347.35,34.60,0000 0000 0000 0000 000000
2015-05-24 12:58:38,0.03,1.10,0.00,23.85,27.53,30.29,4.76,26.73,1019.06,2033.99,2999.62,3007.99,3245.80,349.58,346.94,34.63,0000 0000 0000 0000 000000